Regional Weather Roundup
Issued by NWS

Home | Current Version | Previous Version | Graphics & Text | Print | Product List | Glossary On
Versions: 1 2 3 4 5 6 7 8 9 10 11 12 13 14 15 16 17 18 19 20 21 22 23 24 25 26 27 28 29 30 31 32 33 34 35 36 37 38 39 40 41 42 43 44 45 46 47 48 49 50
000
ASUS43 KFSD 020002
RWRSD

WEATHER ROUNDUP FOR SOUTH DAKOTA
NATIONAL WEATHER SERVICE SIOUX FALLS SD
700 PM CDT SAT AUG 01 2015

NOTE: "FAIR" INDICATES FEW OR NO CLOUDS BELOW 12,000 FEET WITH NO
SIGNIFICANT WEATHER AND/OR OBSTRUCTIONS TO VISIBILITY.


SDZ001>005-009-010-012>017-020100-
NORTHWEST AND NORTH CENTRAL SOUTH DAKOTA

CITY           SKY/WX    TMP DP  RH WIND       PRES   REMARKS
BUFFALO          N/A     96  31  10 NW7       29.81F
FAITH            N/A     94  35  12 NE8       29.86F
MOBRIDGE       SUNNY     93  53  25 NW9       29.77F
$$

SDZ012>016-024>037-041>051-057-063-072>074-020100-
SOUTHWEST AND SOUTH CENTRAL SOUTH DAKOTA

CITY           SKY/WX    TMP DP  RH WIND       PRES   REMARKS
RAPID CTY ARPT SUNNY     91  50  24 SW5       29.93F
PIERRE         MOSUNNY   92  60  34 SW14      29.79F
CUSTER         SUNNY     80  48  32 E8        30.12F
PHILIP         SUNNY     90  62  39 SW14      29.85F
PINE RIDGE     TSTM      78  67  68 NE9       29.97R
WINNER         FAIR      89  58  34 SW16      29.88F
$$

SDZ004>011-016>023-039-040-020100-
NORTHEAST SOUTH DAKOTA

CITY           SKY/WX    TMP DP  RH WIND       PRES   REMARKS
ABERDEEN       SUNNY     88  72  58 S12       29.73F
WATERTOWN      SUNNY     84  64  50 SW13      29.80F
BROOKINGS      SUNNY     81  63  54 SW8       29.85F
SISSETON         N/A     87  66  49 SW8       29.73F
$$

SDZ017-020-022-023-036>040-048>070-020100-
SOUTHEAST SOUTH DAKOTA

CITY           SKY/WX    TMP DP  RH WIND       PRES   REMARKS
SIOUX FALLS    MOSUNNY   83  60  45 SW12      29.85F
HURON          MOSUNNY   88  63  43 W13       29.78F
CHAMBERLAIN    SUNNY     87  61  41 W15G22    29.84F
MITCHELL       SUNNY     87  64  46 S9        29.82F
YANKTON        SUNNY     86  61  42 SW8       29.84S
$$

ABBREVIATIONS USED IN REMARKS
   TC - TEMPERATURE IN CELSIUS
  WCI - WIND CHILL INDEX
   HX - HEAT INDEX
  VSB - VISIBILITY



USA.gov is the U.S. government's official web portal to all federal, state and local government web resources and services.